Regional Weather Roundup
Issued by NWS

Home | Current Version | Previous Version | Graphics & Text | Print | Product List | Glossary On
Versions: 1 2 3 4 5 6 7 8 9 10 11 12 13 14 15 16 17 18 19 20 21 22 23 24 25 26 27 28 29 30 31 32 33 34 35 36 37 38 39 40 41 42 43 44 45 46 47 48 49 50
000
ASUS43 KDMX 262307
RWRIA

WEATHER ROUNDUP FOR IOWA
NATIONAL WEATHER SERVICE DES MOINES IA
600 PM CDT WED AUG 26 2015

NOTE: "FAIR" INDICATES FEW OR NO CLOUDS BELOW 12,000 FEET WITH NO
SIGNIFICANT WEATHER AND/OR OBSTRUCTIONS TO VISIBILITY.

* - THESE STATIONS ARE NOT NWS STATIONS...THUS NOT UNDER NWS
QUALITY CONTROL.  THEY ALSO DO NOT REPORT WEATHER SUCH
AS PRECIPITATION OR FOG.

IAZ001>003-012>014-020>022-031>034-043>046-270000-
   NORTHWEST IOWA

CITY           SKY/WX    TMP DP  RH WIND       PRES   REMARKS
CARROLL *      SUNNY     72  59  64 SE7       30.13S
CHEROKEE *     SUNNY     73  61  64 SE8       30.12S
DENISON *      SUNNY     73  63  68 S8        30.11S
LE MARS *      SUNNY     75  64  69 SE10      30.10S
ORANGE CITY *  SUNNY     73  63  68 SE6       30.11S
SHELDON *      SUNNY     73  61  64 SE7       30.10S
SIOUX CITY     SUNNY     77  62  59 SE10      30.09F
SPENCER        SUNNY     73  53  49 SE10      30.13S
STORM LAKE *   SUNNY     72  59  64 SE8       30.14S
$$

IAZ055>058-069>071-079>083-090>094-270000-
   SOUTHWEST IOWA

CITY           SKY/WX    TMP DP  RH WIND       PRES   REMARKS
ATLANTIC *     SUNNY     75  61  60 SE6       30.13S
AUDUBON *      SUNNY     75  63  64 SE5       30.15S
CLARINDA *     SUNNY     77  63  61 SE5       30.13S
COUNCIL BLFS * SUNNY     75  64  69 SE9       30.12R
CRESTON *      SUNNY     73  57  56 SE5       30.15R
HARLAN  *      SUNNY     73  66  78 SE8       30.15F
LAMONI         MOSUNNY   75  56  51 S5        30.12F
RED OAK *      MOSUNNY   77  63  61 SE7       30.12S
SHENANDOAH *   SUNNY     77  63  61 SE8       30.11S
$$

IAZ047>049-059>061-072>074-084-270000-
   CENTRAL IOWA

CITY           SKY/WX    TMP DP  RH WIND       PRES   REMARKS
AMES           MOSUNNY   70  57  63 S6        30.13F
ANKENY *       SUNNY     75  54  46 SE3       30.13S
CHARITON *     SUNNY     73  57  56 CALM      30.14R
DES MOINES     PTSUNNY   74  52  46 SE6       30.13S
GRINNELL*      SUNNY     73  54  49 CALM      30.15S
KNOXVILLE *    SUNNY     73  54  49 E5        30.12S
MARSHALLTOWN   SUNNY     74  54  49 E3        30.13S
PELLA *        SUNNY     77  59  53 CALM      30.14S
PERRY *          N/A     73  57  56 S3        30.14S
$$

IAZ004>006-015-016-023>025-035-036-270000-
   NORTH CENTRAL IOWA

CITY           SKY/WX    TMP DP  RH WIND       PRES   REMARKS
ALGONA *       SUNNY     73  50  43 S6        30.14S
CLARION *      SUNNY     73  57  56 S6        30.14S
ESTHERVILLE    MOSUNNY   71  53  52 S7        30.13S
FORT DODGE *   MOSUNNY   73  55  53 SW6       30.14F
MASON CITY     SUNNY     73  52  47 CALM      30.15F
FOREST CITY *  SUNNY     70  54  56 CALM      30.14S
IOWA FALLS *     N/A     73  55  53 CALM      30.15F
$$

IAZ007>011-017>019-026>030-037>042-050>054-066-270000-
   NORTHEAST IOWA

CITY           SKY/WX    TMP DP  RH WIND       PRES   REMARKS
CEDAR RAPIDS   SUNNY     73  59  61 W5        30.12S
CHARLES CITY * SUNNY     73  52  46 CALM      30.15S
CLINTON *      SUNNY     73  55  53 CALM      30.15F
DECORAH *      SUNNY     72  50  46 CALM      30.13S
DUBUQUE        SUNNY     74  51  44 CALM      30.13F
MONTICELLO *   SUNNY     73  55  53 VRB3      30.12S
OELWEIN *      SUNNY     73  54  49 CALM      30.14S
WATERLOO       SUNNY     75  51  43 NE3       30.13S
$$

IAZ064-065-067-068-078-270000-
   EAST CENTRAL IOWA

CITY           SKY/WX    TMP DP  RH WIND       PRES   REMARKS
DAVENPORT      SUNNY     75  53  46 CALM      30.13F
IOWA CITY      SUNNY     75  53  46 SW6       30.13S
MT. PLEASANT * SUNNY     77  46  33 CALM      30.13S
MUSCATINE *    SUNNY     75  54  46 CALM      30.12F
QUAD CITIES    SUNNY     76  52  43 NW3       30.12S
$$

IAZ062-063-075>077-085>089-095>099-270000-
   SOUTHEAST IOWA

CITY           SKY/WX    TMP DP  RH WIND       PRES   REMARKS
BURLINGTON     SUNNY     76  56  49 CALM      30.12F
FAIRFIELD *    SUNNY     75  52  43 CALM      30.13S
FORT MADISON * SUNNY     73  59  60 CALM      30.13F
KEOKUK *       SUNNY     75  55  50 NE5       30.12S
OSKALOOSA *      N/A     75  54  46 CALM      30.14R
CENTERVILLE *  SUNNY     73  59  60 SE3       30.15F
OTTUMWA        SUNNY     74  57  55 S3        30.12R
WASHINGTON *     N/A    N/A N/A N/A MISG        N/A
$$

ABBREVIATIONS USED IN REMARKS
   TC - TEMPERATURES IN CELSIUS
  WCI - WIND CHILL INDEX
   HX - HEAT INDEX
  VSB - VISIBILITY
$$




USA.gov is the U.S. government's official web portal to all federal, state and local government web resources and services.